ARIANE 3 DEB, 33536

Orbit data source: Space-Track

ARIANE 3 DEB, 33536 is space debris in HEO originally from a launch on Thu, 08 Sep 1988 UTC launched from the French Guiana (FRGUI). Debris objects in space refer to the collection of defunct objects orbiting the Earth. Examples of debris include non-operational satellites, rocket bodies, and fragments generated from explosions, collisions, or faulty payload assembly.

Loading next visibility...
ARIANE 3 DEB details
Identifier
33536, 1988-081L
Orbit
HEO
Last TLE update18 hours ago
Origin
Flag of FRArianespace (FR)
ManufacturerUnknown
MissionSpacecraft
Bus & MotorUnknown
MassUnknown
Launch date (UTC)
1988-09-08 (36 years ago)
Launch vehicleUnknown
Launch site
French Guiana (FRGUI)
Object type
Payload
Rocket body
Debris
Shape & HBRUnknown
Radar Cross SectionSmall (<0.1 m²)

Expand to show TLE details & history

TLE from 18 hours ago
0 ARIANE 3 DEB
1 33536U 88081L   25025.09512646 -.00000115  00000-0  00000+0 0  9999
2 33536   6.7479  66.7675 6992384 210.1319 125.2141  2.15720568163945
Epoch: 2025-01-25T02:16Z
Definitive object data (Epoch: 2025-01-25T02:16:58.926Z)
Latitude1.84933°
Longitude-76.25334°
Altitude33,765.234 km
Speed2.026 km/s
True Right ascension05h 30m 33s
True Declination1° 50' 51"
Sunlit
Object was in daylight at TLE epoch
Visualization TLE readout
Latitude5.23527°
Longitude37.65518°
Altitude5,230.907 km
Speed7.274 km/s
Apparent Right ascension12h 06m 07s
Apparent Declination-11° 20' 08"
Sunlit
Object is in daylight
Visualization observer readout
Local Sidereal Time21:35:21
Azimuth300.067° NW
Elevation-46.152°
Doppler factor1
Orbital elements
Apogee altitude36,622.558 km
Perigee altitude1,232.895 km
Semi-major axis25,305.864 km
Eccentricity0.6992384
Inclination6.7479°
RAAN66.7675°
Arg. of periapsis210.1319°
True anomaly165.80252°
Mean anomaly125.2141°
Eccentric anomaly147.02155°
Mean motion0.53915 °/min
BSTARUnknown
Orbital period667.71 mins
Loading maneuver chart data...
Loading historical data...
Loading historical data...
Loading historical data...
Loading historical data...
Loading historical data...
Loading historical data...
Loading historical data...

ARIANE 3 DEB Visibility forecast

Observer location: undefined°, undefined

Span
Click to sort rows by Start time (UTC) header in descending order
Start Az.
Max El. time (UTC)
Max El. Az.
Max El.
End time (UTC)
End Az.
497 mins2025-01-25 22:50:16.780Z110.224° ESE2025-01-26 05:15:16.780Z138.441° SSE32.87°2025-01-26 07:07:16.780Z114.338° SE
|